Weather in Nagaoka

Japan     35°02′38″N   138°56′40″E
temp.,
°C
wind,
m/s
gust,
m/s
humid.,
%
clouds,
%
prec.,
mm/h
press.,
hPa
HPBL,
m
1 december, wed
wed100:00+14ssw51386100 1.9 10111054
03:00+15ssw81889100 6.9 10041483
06:00+16s122794100 19.7 9952136
09:00+14wsw71676100 32.4 9971018
12:00+13wsw1120530 0.0 9971165
15:00+10wsw817590 0.0 998661
18:00+7wsw614690 0.0 1003588
21:00+5w510791 0.0 1006504
2 december, thu
thu200:00+4wsw410720 0.0 1007474
03:00+3w35700 0.0 1009166
06:00+3w22661 0.0 101350
09:00+8ese12525 0.0 1016322
12:00+10e335616 0.0 10161022
15:00+10ese236488 0.0 1017793
18:00+9w017583 0.0 101894
21:00+7wsw118016 0.1 101953
3 december, fri
fri300:00+6wsw22870 0.0 101953
03:00+5wsw35854 0.0 1018176
06:00+6wsw411830 0.0 1018403
09:00+10wsw613650 0.0 10171117
12:00+12wsw714494 0.0 10141158
15:00+11wsw814450 0.0 10131095
18:00+7wsw511610 0.0 1013342
21:00+6wsw34730 0.0 1014105
4 december, sat
sat400:00+6wsw47760 0.0 1012208
03:00+7w513690 0.0 1011564
06:00+7wsw413690 0.0 1011550
09:00+10w36600 0.0 1012703
12:00+12w34450 0.0 1010995
15:00+12w12460 0.0 1010777
18:00+8e11640 0.0 1013100
21:00+8e12650 0.0 1015111
5 december, sun
sun500:00+7ene34673 0.0 1017128
03:00+6e23720 0.0 1019114
06:00+5e34773 0.0 1022135
09:00+7ene34633 0.0 1025684
12:00+9e33575 0.0 1025799
15:00+8e33579 0.0 1026657
18:00+6ene34635 0.0 1028211
21:00+6ene357244 0.0 1030241